Location: Spruce Knob
(38.6995°N, 79.5330°W)
Time: 20:12:45
(UTC-04:00)

A-11 Canister half - Pass Details

Date: 31 January 2022
Orbit: 1513 x 1686 km, 47.2° (Epoch: 26 May)

Event Time Altitude Azimuth Distance (km) Brightness Sun altitude
Rises 22:06:49 0° 299° (WNW) 4,678 12.1 -51.8°
Reaches altitude 10° 22:09:57 10° 295° (WNW) 3,683 11.4 -52.4°
Enters shadow 22:13:38 26° 284° (WNW) 2,615 10.4 -53.0°
Maximum altitude 22:18:46 52° 223° (SW) 1,823 - -53.9°
Drops below altitude 10° 22:27:36 10° 150° (SSE) 3,681 - -55.4°
Sets 22:30:45 0° 145° (SE) 4,676 - -55.9°
